**Search for your results by entering your last name OR bib number OR search by age group to compare your stats with others
Individual Search
 
Bib:
Last Name:
All Participants Search
 
Top Ten Women
PlaceNameTimePace
1.Kaley Glover21:46.556:59/M
2.Brittany Celata23:54.557:40/M
3.Michelle Lee25:02.708:01/M
4.Regan Noveskey26:28.468:29/M
5.Keelyn Burnelk27:34.508:50/M
6.Angela Jarrett27:39.938:52/M
7.Carolyn Veliz28:25.239:06/M
8.Jamilatu Siller28:34.379:09/M
9.Susan Sepenoski28:40.269:11/M
10.Andrea Burnell29:28.329:27/M
Top Ten Men
PlaceNameTimePace
1.Kyle Higdon17:59.205:46/M
2.Travis Black21:31.646:54/M
3.Tony Sandoval22:05.967:05/M
4.Jake Davidson24:02.927:42/M
5.David Solano24:13.397:46/M
6.Tai Tran24:21.557:48/M
7.Charlie Hampton24:26.677:50/M
8.Nicholas Lyman25:29.918:10/M
9.Michael Koploy26:00.648:20/M
10.Richard Kirkpatrick26:03.678:21/M
Contact us for results help

Gallery of Events

Contact Us

Address:
172 Trademark Drive
Buda, Texas 78610

Phone:
(512) 386 - 7966

Email:
info@cadencesports.com